Location: Dumpton Point
(51.3500°N, 1.4433°E)
Time: 15:21:25
(UTC+00:00)

Vanguard 1 Rocket - All Passes

Search period start: 24 September 2022 00:00
Search period end: 04 October 2022 00:00
Orbit: 651 x 4224 km, 34.3° (Epoch: 23 September)

Date Brightness Start Highest point End Pass type
(mag) Time Alt. Az. Time Alt. Az. Time Alt. Az.
24 Sep - 02:01:36 10° SW 02:02:33 10° SSW 02:03:26 10° SSW night (unlit)
24 Sep - 19:56:52 10° S 20:02:25 13° SSE 20:06:52 10° SE visible
24 Sep - 22:20:14 10° SW 22:27:51 21° S 22:33:01 10° SE visible
25 Sep - 00:47:40 10° SW 00:52:01 16° SSW 00:55:24 10° SSE night (unlit)
25 Sep - 21:07:38 10° SSW 21:16:29 20° SSE 21:22:28 10° SE visible
25 Sep - 23:34:34 10° SW 23:41:18 21° S 23:45:55 10° SE visible
26 Sep - 19:55:34 10° SSW 20:04:46 18° SSE 20:11:18 10° ESE visible
26 Sep - 22:21:22 10° SW 22:30:16 24° S 22:35:59 10° SE visible
27 Sep - 00:49:51 10° WSW 00:54:19 16° SSW 00:57:46 10° SSE night (unlit)
27 Sep - 18:44:51 10° S 18:52:45 15° SSE 18:58:54 10° SE visible
27 Sep - 21:08:10 10° SW 21:18:52 25° S 21:25:38 10° ESE visible
27 Sep - 23:36:19 10° WSW 23:43:39 22° SSW 23:48:34 10° SE visible
28 Sep - 17:40:23 10° SE 17:40:31 10° SE 17:40:39 10° SE daylight
28 Sep - 19:55:16 10° SSW 20:07:04 23° SSE 20:14:49 10° ESE visible
28 Sep - 22:22:43 10° SW 22:32:38 27° S 22:38:47 10° SE visible
29 Sep - 00:52:12 10° WSW 00:56:33 15° SSW 00:59:57 10° S night (unlit)
29 Sep - 18:43:14 10° SSW 18:54:57 20° SSE 19:03:13 10° ESE visible
29 Sep - 21:09:00 10° SW 21:21:12 29° S 21:28:35 10° ESE visible
29 Sep - 23:38:11 10° WSW 23:45:57 23° SSW 23:51:04 10° SSE visible
30 Sep - 17:33:01 10° S 17:42:34 15° SSE 17:50:07 10° ESE daylight
30 Sep - 19:55:29 10° SW 20:09:21 28° SSE 20:17:57 10° ESE visible
30 Sep - 22:24:12 10° WSW 22:34:56 29° S 22:41:27 10° SE visible
01 Oct - 00:54:45 10° WSW 00:58:41 14° SW 01:01:49 10° S night (unlit)
01 Oct - 18:42:37 10° SSW 18:57:06 25° SSE 19:06:43 10° ESE visible
01 Oct - 21:10:04 10° SW 21:23:29 32° S 21:31:22 10° ESE visible
01 Oct - 23:40:09 10° WSW 23:48:08 22° SSW 23:53:27 10° SSE visible
02 Oct - 17:31:00 10° S 17:44:35 20° SSE 17:54:31 10° ESE daylight
02 Oct - 19:56:03 10° SW 20:11:34 32° S 20:20:52 10° ESE visible
02 Oct - 22:25:47 10° WSW 22:37:11 30° SSW 22:44:01 10° SE visible
03 Oct - 00:57:41 10° WSW 01:00:42 12° SW 01:03:16 10° SSW night (unlit)
03 Oct - 16:21:51 10° SSE 16:31:58 15° SE 16:40:21 10° ESE daylight
03 Oct - 18:42:32 10° SSW 18:59:12 30° SSE 19:09:51 10° ESE visible
03 Oct - 21:11:17 10° WSW 21:25:44 34° S 21:34:03 10° SE visible
03 Oct - 23:42:12 10° WSW 23:50:15 21° SSW 23:55:39 10° SSE visible
